Algona, IA

9:47 AM CDT on May 29, 2017 (GMT -0500)
Algona Municipal

Weather History for KAXA - January, 2014

Change the Weather History Date:

Saturday, January 18, 2014

  Actual Average Record
Temperature  
Mean Temperature 22 °F -  
Max Temperature 35 °F 23 °F 48 °F (2013)
Min Temperature 10 °F 8 °F -13 °F (2016)
Degree Days  
Heating Degree Days 42    
Moisture  
Dew Point 16 °F    
Average Humidity 80    
Maximum Humidity 100    
Minimum Humidity 49    
Precipitation  
Precipitation 0.00 in - - ()
Sea Level Pressure  
Sea Level Pressure 29.70 in    
Wind  
Wind Speed 16 mph (WNW)    
Max Wind Speed 24 mph    
Max Gust Speed 33 mph    
Visibility 8 miles    
Events Rain , Snow    
Averages and records for this station are not official NWS values.
T = Trace of Precipitation, MM = Missing Value Source: NWS Daily Summary

Daily Weather History Graph

Daily Weather History Graph

Search for Another Location

Airport or City:

Trip Planner

Search our weather history database for the weather conditions in past years. The results will help you decide how hot, cold, wet, or windy it might be!

Date:

Astronomy

Jan. 18, 2014 Rise Set
Actual Time 7:44 AM CST 5:11 PM CST
Civil Twilight 7:12 AM CST 5:42 PM CST
Nautical Twilight 6:37 AM CST 6:17 PM CST
Astronomical Twilight 6:04 AM CST 6:51 PM CST
Moon 7:59 PM CST (1/18) 8:39 AM CST (1/18)
Length of Visible Light 10h 29m
Length of Day
9h 27m
Waning Gibbous, 94% of the Moon is Illuminated
Jan 18
Waning Gibbous
Jan 23
Last Quarter
Jan 30
New
Feb 6
First Quarter
Feb 14
Full

Hourly Weather History & Observations

Time (CST) Temp. Windchill Dew Point Humidity Pressure Visibility Wind Dir Wind Speed Gust Speed Precip Events Conditions
12:15 AM 17.6 °F 2.7 °F 3.2 °F 53% 29.72 in 10.0 mi South 16.1 mph - N/A   Overcast
12:35 AM 19.4 °F 5.5 °F 3.2 °F 49% 29.70 in 10.0 mi South 15.0 mph - N/A   Overcast
12:55 AM 19.4 °F 5.5 °F 3.2 °F 49% 29.69 in 10.0 mi South 15.0 mph - N/A   Overcast
1:15 AM 19.4 °F 5.0 °F 5.0 °F 54% 29.66 in 10.0 mi South 16.1 mph - N/A   Overcast
1:35 AM 21.2 °F 6.4 °F 5.0 °F 50% 29.64 in 10.0 mi South 18.4 mph - N/A   Overcast
1:55 AM 21.2 °F 6.0 °F 5.0 °F 50% 29.62 in 10.0 mi South 19.6 mph - N/A   Overcast
2:15 AM 21.2 °F 5.6 °F 6.8 °F 54% 29.58 in 10.0 mi South 20.7 mph - N/A   Overcast
2:35 AM 23.0 °F 8.0 °F 6.8 °F 50% 29.56 in 10.0 mi South 20.7 mph 28.8 mph N/A   Overcast
2:55 AM 23.0 °F 8.3 °F 10.4 °F 59% 29.55 in 10.0 mi South 19.6 mph 26.5 mph N/A   Overcast
3:15 AM 24.8 °F 10.7 °F 12.2 °F 59% 29.53 in 10.0 mi South 19.6 mph - N/A   Overcast
3:35 AM 24.8 °F 11.1 °F 12.2 °F 59% 29.52 in 10.0 mi South 18.4 mph 27.6 mph N/A   Overcast
3:55 AM 24.8 °F 11.5 °F 12.2 °F 59% 29.51 in - South 17.3 mph - N/A   Unknown
4:15 AM 24.8 °F 10.0 °F 12.2 °F 59% 29.48 in 10.0 mi South 21.9 mph - N/A   Unknown
4:35 AM 24.8 °F 11.9 °F 14.0 °F 64% 29.47 in 10.0 mi South 16.1 mph - N/A   Mostly Cloudy
4:55 AM 24.8 °F 13.4 °F 15.8 °F 69% 29.47 in 3.0 mi SSW 12.7 mph 19.6 mph N/A   Mostly Cloudy
5:15 AM 26.6 °F 16.2 °F 21.2 °F 80% 29.45 in 8.0 mi SW 11.5 mph - N/A   Overcast
5:35 AM 26.6 °F 15.7 °F 23.0 °F 86% 29.45 in 10.0 mi SW 12.7 mph - N/A   Overcast
5:55 AM 28.4 °F 19.7 °F 24.8 °F 86% 29.44 in 9.0 mi WSW 9.2 mph - N/A   Overcast
6:15 AM 28.4 °F 17.5 °F 26.6 °F 93% 29.44 in 2.0 mi West 13.8 mph - N/A Snow Light Snow
6:35 AM 30.2 °F 19.8 °F 28.4 °F 93% 29.44 in 3.0 mi West 13.8 mph - N/A Snow Light Snow
6:55 AM 30.2 °F 19.3 °F 30.2 °F 100% 29.44 in 1.8 mi West 15.0 mph - N/A Snow Light Snow
7:15 AM 32.0 °F 21.6 °F 30.2 °F 93% 29.44 in 9.0 mi West 15.0 mph - N/A Snow Light Snow
7:35 AM 32.0 °F 21.2 °F 32.0 °F 100% 29.44 in 4.0 mi West 16.1 mph - N/A Snow Light Snow
7:55 AM 33.8 °F 24.3 °F 32.0 °F 93% 29.44 in 2.0 mi WNW 13.8 mph - N/A Snow Light Snow
8:15 AM 33.8 °F 24.3 °F 32.0 °F 93% 29.44 in 9.0 mi WNW 13.8 mph - N/A Snow Light Snow
8:35 AM 33.8 °F 23.5 °F 32.0 °F 93% 29.44 in 2.5 mi WNW 16.1 mph - N/A Snow Light Snow
8:55 AM 33.8 °F 25.3 °F 32.0 °F 93% 29.45 in 7.0 mi WNW 11.5 mph 18.4 mph N/A Snow Light Snow
9:15 AM 33.8 °F 23.5 °F 32.0 °F 93% 29.46 in 8.0 mi NW 16.1 mph - N/A Snow Light Snow
9:35 AM 35.6 °F 25.2 °F 32.0 °F 87% 29.47 in 9.0 mi NW 18.4 mph - N/A   Mostly Cloudy
9:55 AM 33.8 °F 23.5 °F 32.0 °F 93% 29.48 in 5.0 mi NNW 16.1 mph - N/A Snow Light Snow
10:15 AM 33.8 °F 22.2 °F 32.0 °F 93% 29.50 in 6.0 mi NNW 20.7 mph 28.8 mph N/A Rain Light Rain
10:35 AM 33.8 °F 21.3 °F 30.2 °F 87% 29.52 in 10.0 mi NNW 24.2 mph - N/A   Overcast
10:55 AM 32.0 °F 19.8 °F 28.4 °F 87% 29.55 in 9.0 mi North 20.7 mph 27.6 mph N/A   Overcast
11:15 AM 30.2 °F 17.1 °F 26.6 °F 86% 29.57 in 5.0 mi North 21.9 mph 29.9 mph N/A   Overcast
11:35 AM 26.6 °F 12.4 °F 24.8 °F 93% 29.59 in - North 21.9 mph 33.4 mph N/A Rain Light Freezing Rain
11:55 AM 23.0 °F 7.2 °F 21.2 °F 93% 29.62 in 3.0 mi North 23.0 mph 32.2 mph N/A Rain Light Freezing Rain
12:15 PM 23.0 °F 7.6 °F 19.4 °F 86% 29.65 in 1.2 mi North 21.9 mph 28.8 mph N/A   Light Freezing Rain
12:35 PM 21.2 °F 5.2 °F 17.6 °F 86% 29.67 in 4.0 mi North 21.9 mph 32.2 mph N/A   Mostly Cloudy
12:55 PM 21.2 °F 5.2 °F 17.6 °F 86% 29.70 in 3.0 mi North 21.9 mph 29.9 mph N/A   Haze
1:15 PM 19.4 °F 2.8 °F 15.8 °F 86% 29.73 in 2.0 mi North 21.9 mph 32.2 mph N/A   Haze
1:35 PM 19.4 °F 2.8 °F 15.8 °F 86% 29.76 in 3.0 mi North 21.9 mph 31.1 mph N/A Rain Light Freezing Rain
1:55 PM 19.4 °F 3.2 °F 14.0 °F 80% 29.78 in 4.0 mi North 20.7 mph 33.4 mph N/A   Haze
2:15 PM 19.4 °F 3.6 °F 14.0 °F 80% 29.80 in 2.0 mi North 19.6 mph 28.8 mph N/A Snow Light Snow
2:35 PM 19.4 °F 2.8 °F 14.0 °F 80% 29.82 in 1.5 mi North 21.9 mph 29.9 mph N/A Snow Light Snow
2:55 PM 19.4 °F 5.5 °F 12.2 °F 74% 29.83 in 7.0 mi North 15.0 mph 29.9 mph N/A   Mostly Cloudy
3:15 PM 17.6 °F 1.7 °F 12.2 °F 79% 29.86 in 5.0 mi North 18.4 mph 26.5 mph N/A Snow Light Snow
3:35 PM 19.4 °F 3.6 °F 12.2 °F 74% 29.88 in 9.0 mi North 19.6 mph 25.3 mph N/A   Mostly Cloudy
3:55 PM 17.6 °F 2.2 °F 12.2 °F 79% 29.89 in 5.0 mi North 17.3 mph - N/A Snow Light Snow
4:15 PM 17.6 °F 3.2 °F 12.2 °F 79% 29.92 in 10.0 mi North 15.0 mph 21.9 mph N/A   Scattered Clouds
4:35 PM 17.6 °F 2.7 °F 12.2 °F 79% 29.94 in 10.0 mi NNW 16.1 mph 23.0 mph N/A   Partly Cloudy
4:55 PM 17.6 °F 3.2 °F 12.2 °F 79% 29.96 in 10.0 mi NNW 15.0 mph 20.7 mph N/A   Clear
5:15 PM 17.6 °F 4.3 °F 12.2 °F 79% 29.97 in 10.0 mi NNW 12.7 mph 23.0 mph N/A   Mostly Cloudy
5:35 PM 15.8 °F 2.7 °F 12.2 °F 86% 29.98 in 10.0 mi NNW 11.5 mph 17.3 mph N/A   Partly Cloudy
5:55 PM 15.8 °F 2.7 °F 12.2 °F 86% 29.97 in 10.0 mi NNW 11.5 mph - N/A   Clear
6:15 PM 15.8 °F 2.1 °F 12.2 °F 86% 29.98 in 10.0 mi NNW 12.7 mph - N/A   Clear
6:35 PM 15.8 °F 7.2 °F 10.4 °F 79% 29.97 in 10.0 mi NNW 5.8 mph 12.7 mph N/A   Clear
6:55 PM 14.0 °F - 10.4 °F 86% 29.96 in 10.0 mi Calm Calm - N/A   Clear
7:15 PM 10.4 °F -0.4 °F 6.8 °F 85% 29.96 in 10.0 mi WNW 6.9 mph - N/A   Clear
7:35 PM 10.4 °F -1.5 °F 6.8 °F 85% 29.97 in 10.0 mi West 8.1 mph - N/A   Clear
7:55 PM 10.4 °F -0.4 °F 6.8 °F 85% 29.96 in 10.0 mi West 6.9 mph - N/A   Clear
8:15 PM 10.4 °F -1.5 °F 6.8 °F 85% 29.95 in 10.0 mi WNW 8.1 mph - N/A   Clear
8:35 PM 10.4 °F -1.5 °F 6.8 °F 85% 29.96 in 10.0 mi WNW 8.1 mph - N/A   Clear
8:55 PM 12.2 °F 0.7 °F 8.6 °F 85% 29.94 in 10.0 mi West 8.1 mph - N/A   Clear
9:15 PM 14.0 °F 2.9 °F 10.4 °F 86% 29.94 in 10.0 mi West 8.1 mph - N/A   Clear
9:35 PM 14.0 °F 1.2 °F 10.4 °F 86% 29.94 in 10.0 mi West 10.4 mph - N/A   Clear
9:55 PM 15.8 °F 2.7 °F 12.2 °F 86% 29.92 in 10.0 mi WSW 11.5 mph - N/A   Mostly Cloudy
10:15 PM 15.8 °F 3.4 °F 12.2 °F 86% 29.91 in 10.0 mi SW 10.4 mph - N/A   Mostly Cloudy
10:35 PM 15.8 °F 5.1 °F 12.2 °F 86% 29.90 in 10.0 mi SW 8.1 mph - N/A   Mostly Cloudy
10:55 PM 15.8 °F 2.7 °F 12.2 °F 86% 29.89 in 10.0 mi SW 11.5 mph - N/A   Overcast
11:15 PM 17.6 °F 2.7 °F 14.0 °F 86% 29.88 in 10.0 mi SW 16.1 mph - N/A   Overcast
11:35 PM 17.6 °F 2.7 °F 14.0 °F 86% 29.86 in 10.0 mi SW 16.1 mph - N/A   Scattered Clouds
11:55 PM 17.6 °F 3.2 °F 14.0 °F 86% 29.85 in 10.0 mi SW 15.0 mph - N/A   Clear